Location: Unspecified
(0.0000°N, 0.0000°E)
Time: 20:58:42
(UTC+00:00)

Envisat - Pass Details

Date: 22 June 2017
Orbit: 764 x 766 km, 98.2° (Epoch: 26 June)

Event Time Altitude Azimuth Distance (km) Brightness Sun altitude
Exits shadow 21:15:26 13° 311° (NW) 2,092 5.8 -43.3°
Drops below altitude 10° 21:16:03 10° 315° (NW) 2,293 6.0 -43.4°
Sets 21:18:39 0° 327° (NNW) 3,216 6.9 -43.9°
